WetterOnline ( https://www.wetteronline.de )

Wetter aktuell Olmütz

Aktuelles Wetter: Holesov (224m)

6-stündlich | Neueste Meldungen
Ortszeit Temperatur Wetter
So, 25.10. 13:00 10.2° C bedeckt
So, 25.10. 7:00 7.7° C Nebel (zunehmend)
So, 25.10. 2:00 10.0° C Nebel
Sa, 24.10. 20:00 10.2° C bewölkt
Sa, 24.10. 14:00 12.2° C bewölkt
Sa, 24.10. 8:00 9.4° C Nebel
Sa, 24.10. 2:00 8.1° C Nebel
Fr, 23.10. 20:00 11.1° C leicht bewölkt
Ortszeit Temperatur Wetter
So, 25.10. 18:00 9.3° C Nebel (zunehmend)
So, 25.10. 17:00 9.8° C bedeckt
So, 25.10. 16:00 10.2° C bewölkt
So, 25.10. 15:00 10.3° C bedeckt
So, 25.10. 14:00 10.5° C bedeckt
So, 25.10. 13:00 10.2° C bedeckt
Ortszeit Relative Feuchte Sichtweite
So, 25.10. 13:00 95% 5.0 km
So, 25.10. 7:00 99% 0.6 km
So, 25.10. 2:00 99% 0.9 km
Sa, 24.10. 20:00 99% 2.0 km
Sa, 24.10. 14:00 91% 9 km
Sa, 24.10. 8:00 99% 0.3 km
Sa, 24.10. 2:00 98% 0.9 km
Fr, 23.10. 20:00 90% 7 km
Ortszeit Relative Feuchte Sichtweite
So, 25.10. 18:00 98% 0.8 km
So, 25.10. 17:00 97% 3.7 km
So, 25.10. 16:00 96% 5.0 km
So, 25.10. 15:00 94% 6 km
So, 25.10. 14:00 95% 6 km
So, 25.10. 13:00 95% 5.0 km
Ortszeit Niederschlagsmenge Niederschlagsart
So, 25.10. 13:00 0.0 l/m2 in 6 Std. Nebel
So, 25.10. 7:00 0.0 l/m2 in 12 Std. -
So, 25.10. 2:00 0.1 l/m2 in 6 Std. -
Sa, 24.10. 20:00 1 l/m2 in 12 Std. -
Sa, 24.10. 14:00 1 l/m2 in 6 Std. Regen
Sa, 24.10. 8:00 0.0 l/m2 in 12 Std. -
Sa, 24.10. 2:00 0.0 l/m2 in 6 Std. -
Fr, 23.10. 20:00 0.0 l/m2 in 12 Std. -
Ortszeit Niederschlagsmenge Niederschlagsart
So, 25.10. 18:00 0.0 l/m2 in 1 Std. -
So, 25.10. 17:00 0.0 l/m2 in 1 Std. -
So, 25.10. 16:00 0.0 l/m2 in 1 Std. -
So, 25.10. 15:00 0.0 l/m2 in 1 Std. -
So, 25.10. 14:00 0.0 l/m2 in 1 Std. -
So, 25.10. 13:00 0.0 l/m2 in 1 Std. Nebel
Ortszeit Stärke Spitze Richtung
km/h Bft. km/h Grad Sektor
So, 25.10. 13:00 7 2 - 270° W
So, 25.10. 7:00 7 2 - 140° SO
So, 25.10. 2:00 4 1 - 100° O
Sa, 24.10. 20:00 7 2 - 120° SO
Sa, 24.10. 14:00 4 1 - 170° S
Sa, 24.10. 8:00 11 2 - 170° S
Sa, 24.10. 2:00 7 2 - 170° S
Fr, 23.10. 20:00 14 3 - 180° S
Ortszeit Stärke Spitze Richtung
km/h Bft. km/h Grad Sektor
So, 25.10. 18:00 4 1 - 250° W
So, 25.10. 17:00 4 1 - 240° SW
So, 25.10. 16:00 4 1 - 240° SW
So, 25.10. 15:00 7 2 - 290° W
So, 25.10. 14:00 4 1 - 180° S
So, 25.10. 13:00 7 2 - 270° W
Ortszeit Untergrenze Bedeckung Gattung
total tief tief mittel hoch
So, 25.10. 13:00 90 m 8/8 8/8 St - -
So, 25.10. 7:00 60 m 8/8 8/8 St - -
So, 25.10. 2:00 60 m - 8/8 - - -
Sa, 24.10. 20:00 150 m 7/8 7/8 St - -
Sa, 24.10. 14:00 180 m 7/8 7/8 St - -
Sa, 24.10. 8:00 60 m 8/8 8/8 St - -
Sa, 24.10. 2:00 660 m - 7/8 - - -
Fr, 23.10. 20:00 2700 m 7/8 3/8 - Ac Ci
Ortszeit Bedeckungsgrad in Achtel und Wolkenuntergrenze
So, 25.10. 18:00 8(30m)
So, 25.10. 17:00 8(90m)
So, 25.10. 16:00 7(150m)
So, 25.10. 15:00 8(150m)
So, 25.10. 14:00 8(120m)
So, 25.10. 13:00 8(90m)
Ortszeit Luftdruck NN (hPa) Tendenz (hPa in 3 Std.)
So, 25.10. 13:00 1014 - 1,9
So, 25.10. 7:00 1017 - 0,2
So, 25.10. 2:00 1018 - 0,8
Sa, 24.10. 20:00 1019 + 0,8
Sa, 24.10. 14:00 1017 - 0,1
Sa, 24.10. 8:00 1016 + 0,7
Sa, 24.10. 2:00 1016 0,0
Fr, 23.10. 20:00 1016 0,0
Ortszeit Luftdruck NN (hPa) Tendenz (hPa in 3 Std.)
So, 25.10. 18:00 1013 + 0,1
So, 25.10. 17:00 1013 - 0,5
So, 25.10. 16:00 1013 - 1,3
So, 25.10. 15:00 1013 - 1,7
So, 25.10. 14:00 1013 - 2,3
So, 25.10. 13:00 1014 - 1,9
Ortszeit Schneehöhe (cm)
So, 25.10. 13:00 -
So, 25.10. 7:00 -
So, 25.10. 2:00 -
Sa, 24.10. 20:00 -
Sa, 24.10. 14:00 -
Sa, 24.10. 8:00 -
Sa, 24.10. 2:00 -
Fr, 23.10. 20:00 -
Ortszeit Schneehöhe (cm)
So, 25.10. 18:00 -
So, 25.10. 17:00 -
So, 25.10. 16:00 -
So, 25.10. 15:00 -
So, 25.10. 14:00 -
So, 25.10. 13:00 -
Link zu dieser Seite / Seite empfehlen

Das Wetter in ...